{"data":{"norad_id":66393,"intl_designator":"2025-257P","name":"STARLINK-35652","alt_names":[],"object_type":"PAYLOAD","status":"ACTIVE","operator":null,"country":"US","launch_date":"2025-11-09","launch_site_code":"AFETR","launch_vehicle":null,"mission":null,"orbit_class":"UNKNOWN","rcs_meters":null,"size_class":null,"mass_kg":null,"dimensions":null,"purposes":["comms"],"wikipedia_slug":null,"has_3d_model":false,"image_url":null,"decayed_at":null,"tle_current":{"epoch":"2026-05-24T22:40:13.402848Z","epoch_age_seconds":83090,"freshness":"FRESH","line1":"1 66393U 25257P   26144.94459957  .00015423  00000+0  53180-3 0  9991","line2":"2 66393  53.1593 223.1690 0001294  77.6209 282.4937 15.30198233 31403","mean_motion":15.30198233,"eccentricity":0.0001294,"inclination_deg":53.1593,"raan_deg":223.169,"arg_perigee_deg":77.6209,"mean_anomaly_deg":282.4937,"bstar":0.0005318,"rev_number":3140,"period_min":94.105454374812,"perigee_km":474.33352092741,"apogee_km":476.10716980839,"semimajor_km":6853.3573453679,"source":"CELESTRAK","updated_at":"2026-05-25T13:38:21.203009Z"}}}